sat.trackr.live / text

‹ back to catalog

GSAT-18

NORAD 41793 · 2016-060A

PAYLOAD ACTIVE UNKNOWN

§ Identity

Operator
Country
IND
Launch date
2016-10-05
Launch site
FRGUI
Launch vehicle
Mass (kg)
RCS (m²)
0.00

Purposes: comms

External: N2YO · Heavens-Above · Gunter

§ Orbital elements

Epoch: 2026-05-25T04:05:45.234816Z

Period
1,436.10 min
Inclination
0.0676°
Eccentricity
0.0005578
Mean motion
1.00271839 rev/d
Perigee alt
35,763.1 km
Apogee alt
35,810.1 km
Semi-major
42,164.7 km
B*
0.0000e+0
RAAN
96.9541°
Arg perigee
330.3731°
Mean anomaly
310.8784°
Rev number
3,529

§ Raw data

GSAT-181 41793U 16060A   26145.17066244 -.00000079  00000+0  00000+0 0  99902 41793   0.0676  96.9541 0005578 330.3731 310.8784  1.00271839 35295

JSON: /api/v1/satellites/41793 · /tle

For live sub-satellite position, see the globe view (requires WebGL).

§ Visibility from observer

Set your observer location to see the next 7 days of passes ≥ 10°. The values pass through the URL so the page stays shareable.

No JS? Fill the form by hand. The geolocation button needs JavaScript.